#timestamp,LO_Frequency,Hit,StdDev 
1576738815.6,286047000.3,N
1576738835.4,286046998.1,N
1576738855.3,286046998.1,N
1576738875.1,286047000.7,N
1576738876.0,286047000.7,N
1576738895.8,286047000.7,N
1576738915.7,286046996.7,N
1576738935.5,286046995.5,N
1576738955.4,286046997.5,N
1576738975.2,286046997.0,N
1576738995.0,286046998.2,N
1576738995.9,286046998.2,N
1576739015.8,286046998.9,N
1576739035.6,286046999.2,N
1576739055.4,286046999.0,N
1576739075.3,286046999.3,N
1576739095.1,286046999.4,N
1576739115.9,286046996.1,N
1576739135.7,286046996.0,N
1576739155.5,286046994.1,N
1576739175.4,286046993.4,N
1576739195.2,286046992.4,Y
1576739215.1,286046993.5,P
1576739216.0,286046993.5,N
1576739235.8,286046996.3,N
1576739255.6,286046996.2,N
1576739275.5,286046996.1,N
1576739295.3,286046996.1,N
1576739315.2,286046993.7,Y
1576739335.9,286046998.7,P
1576739355.7,286046998.6,N
1576739375.6,286046999.4,N
1576739395.4,286046997.4,N
1576739415.2,286046999.6,N
1576739435.1,286046997.1,N
1576739436.0,286046997.1,N
1576739455.8,286046998.0,N
1576739475.7,286046996.6,N
1576739495.5,286046996.7,N
1576739515.3,286046999.3,N
1576739535.2,286047000.8,N
1576739555.0,286046998.6,N
1576739555.9,286046998.6,N
1576739575.8,286046998.2,N
1576739595.6,286047001.1,N
1576739615.4,286047000.4,N
1576739635.3,286046998.9,N
1576739655.1,286046996.9,N
1576739675.8,286046996.7,N
1576739695.7,286047000.8,N
1576739715.5,286047000.7,N
1576739735.4,286046998.3,N
1576739755.2,286046998.2,N
1576739775.0,286046998.7,N
1576739775.9,286046998.7,N
1576739795.8,286046996.7,N
1576739815.6,286046997.9,N
1576739835.4,286046995.5,Y
1576739855.3,286047000.5,P
1576739875.1,286046998.1,N
1576739895.9,286047000.6,N
1576739915.7,286046998.1,N
1576739935.5,286047000.9,N
1576739955.4,286047001.9,N
1576739975.2,286047005.6,Y
1576739995.1,286047003.7,P
1576739996.0,286047003.7,N
1576740015.8,286047003.2,N
1576740035.6,286047004.9,N
1576740055.5,286047005.1,N
1576740075.3,286047006.0,Y
1576740095.1,286047003.7,P
1576740115.9,286047002.1,P
1576740135.7,286047001.9,N
1576740155.6,286047001.2,N
1576740175.4,286046997.8,N
1576740195.2,286046996.6,N
1576740215.1,286046997.6,N
1576740216.0,286046997.6,N
1576740235.8,286046995.2,N
1576740255.7,286046996.2,N
1576740275.5,286046991.9,N
1576740295.3,286046992.2,N
1576740315.2,286046990.2,N
1576740335.9,286046993.0,N
1576740355.7,286046991.3,N
1576740375.6,286046990.2,N
1576740395.4,286046991.3,N
1576740415.3,286046989.0,N
1576740435.1,286046988.9,N
1576740436.0,286046988.9,N
1576740455.8,286046990.0,N
1576740475.7,286046988.2,N
1576740495.5,286046985.3,N
1576740515.3,286046985.6,N
1576740535.2,286046983.8,N
1576740555.0,286046983.7,N
1576740555.9,286046983.7,N
1576740575.8,286046984.6,N
1576740595.6,286046984.9,N
1576740615.4,286046984.9,N
1576740635.3,286046982.6,N
1576740655.1,286046980.6,Y
1576740675.9,286046990.4,P
1576740695.7,286046990.5,P
1576740715.5,286046990.1,P
1576740735.4,286046990.4,Y
1576740755.2,286046998.4,P
1576740775.0,286046996.5,N
1576740775.9,286046996.5,N
1576740795.8,286046996.8,N
1576740815.6,286046999.6,N
1576740835.5,286046996.6,N
1576740855.3,286046999.3,N
1576740875.1,286046999.0,N
1576740895.9,286047000.9,N
1576740915.7,286046998.9,N
1576740935.5,286046999.1,N
1576740955.4,286046999.0,N
1576740975.2,286046998.5,N
1576740995.1,286046999.5,N
1576740996.0,286046999.5,N
1576741015.8,286046998.9,N
1576741035.6,286046997.0,N
1576741055.5,286046998.5,N
1576741075.3,286047000.9,N
1576741095.1,286046996.9,N
1576741115.9,286046998.3,N
1576741135.7,286047001.1,N
1576741155.6,286047002.4,N
1576741175.4,286047003.1,N
1576741195.2,286047005.5,N
1576741215.1,286047004.6,N
1576741216.0,286047004.6,N
1576741235.8,286047005.7,N
1576741255.7,286047005.8,N
1576741275.5,286047004.1,N
1576741295.3,286047001.3,N
1576741315.2,286047002.4,N
1576741335.9,286047000.4,N
1576741355.7,286046998.6,N
1576741375.6,286046998.9,N
1576741395.4,286046997.4,N
1576741415.2,286046997.6,N
1576741435.1,286047001.1,N
1576741436.0,286047001.1,N
1576741455.8,286047000.7,N
1576741475.7,286046998.1,N
1576741495.5,286046998.6,N
1576741515.3,286047000.2,N
1576741535.2,286046998.4,N
1576741555.0,286047000.6,N
1576741555.9,286047000.6,N
1576741575.8,286047000.1,N
1576741595.6,286046999.8,N
1576741615.4,286047000.4,N
1576741635.3,286047000.8,N
1576741655.1,286046998.1,N
1576741675.8,286046998.6,N
1576741695.7,286047000.5,N
1576741715.5,286047000.6,N
1576741735.4,286047000.5,N
1576741755.2,286047001.2,N
1576741775.0,286046998.5,N
1576741775.9,286046998.5,N
1576741795.8,286046996.5,N
1576741815.6,286046999.2,N
1576741835.4,286046996.5,N
1576741855.3,286046999.5,N
1576741875.1,286046998.4,N
1576741895.9,286046998.4,N
1576741915.7,286047000.8,N
1576741935.5,286046998.2,N
1576741955.4,286047002.6,N
1576741975.2,286047001.6,N
1576741995.1,286047000.0,N
1576741996.0,286047000.0,N
1576742015.8,286047000.2,N
1576742035.6,286046998.2,N
1576742055.5,286047000.1,N
1576742075.3,286047000.2,N
1576742095.1,286047003.6,N
1576742115.9,286047004.1,N
1576742135.7,286047004.0,N
1576742155.6,286047003.3,N
1576742175.4,286047007.4,Y
1576742195.2,286047006.7,P
1576742215.1,286047009.1,N
1576742216.0,286047009.1,N
1576742235.8,286047004.6,N
1576742255.7,286047003.2,N
1576742275.5,286047003.9,N
1576742295.3,286047001.7,N
1576742315.2,286047001.6,N
1576742335.9,286047000.2,N
1576742355.7,286047000.6,N
1576742375.6,286046998.2,N
1576742395.4,286047001.0,N
